Stations météo

réclame
Mon MeteoGroup
St. Mary's, Grande-Bretagne (3803): Température de l'air & dewpoint: 15.10.2018 15:00:00 - 21.10.2018 15:00:00 (BST)St. Mary's, Grande-Bretagne (3803): Température de l'air -20cm: 15.10.2018 15:00:00 - 21.10.2018 15:00:00 (BST)St. Mary's, Grande-Bretagne (3803): Vitesse du vent & gusts: 15.10.2018 15:00:00 - 21.10.2018 15:00:00 (BST)St. Mary's, Grande-Bretagne (3803): Direction du vent: 15.10.2018 15:00:00 - 21.10.2018 15:00:00 (BST)St. Mary's, Grande-Bretagne (3803): reduced air pressure: 15.10.2018 15:00:00 - 21.10.2018 15:00:00 (BST)St. Mary's, Grande-Bretagne (3803): visibility: 15.10.2018 15:00:00 - 21.10.2018 15:00:00 (BST)St. Mary's, Grande-Bretagne (3803): Quantités de précipitations: 15.10.2018 15:00:00 - 21.10.2018 15:00:00 (BST)
Date & Time tt [°C] td [°C] tt -20cm [°C] ff [km/h] ff [knt] fx [km/h] fx [knt] dd ppp [hPa] vv [km] rr [mm]
21.10.2018 15:00:00 14,0 11,4 - 15 8 - - NNW 1029,5 45 0,0
21.10.2018 14:00:00 15,3 11,3 - 11 6 - - N 1029,5 30 0,0
21.10.2018 13:00:00 14,6 10,7 - 9 5 - - N 1029,5 40 0,0
21.10.2018 12:00:00 14,7 11,6 - 5 3 - - N 1029,5 35 0,0
21.10.2018 11:00:00 13,4 12,2 - 9 5 - - NNW 1029,4 22 0,0
21.10.2018 10:00:00 12,9 12,6 13,7 - - - - - 1029,7 8 0,0
21.10.2018 09:00:00 12,0 11,7 - 8 4 - - NNW 1029,6 9 0,0
21.10.2018 08:00:00 11,8 11,3 - 4 2 - - WNW 1029,1 4,0 0,0
21.10.2018 07:00:00 12,4 11,8 - 4 2 - - ESE 1028,9 15 0,0
21.10.2018 06:00:00 12,2 11,5 - 5 3 - - SE 1029,0 16 0,0
21.10.2018 05:00:00 12,6 11,6 - 5 3 - - ESE 1029,0 19 0,0
21.10.2018 04:00:00 12,6 11,4 - 11 6 - - SE 1029,4 27 0,2
21.10.2018 03:00:00 12,7 12,1 - 11 6 - - SE 1029,9 12 0,0
21.10.2018 02:00:00 12,7 12,3 - 11 6 - - SE 1030,1 10 0,0
21.10.2018 01:00:00 12,6 12,5 - 9 5 - - E 1030,5 7 0,0
21.10.2018 00:00:00 12,4 12,3 - 9 5 - - E 1030,9 6 0,0
20.10.2018 23:00:00 11,7 11,5 - 9 5 - - ENE 1031,1 1,6 0,0
20.10.2018 22:00:00 12,1 11,9 - 8 4 - - ENE 1031,2 0,6 0,0
20.10.2018 21:00:00 12,2 11,9 - 9 5 - - NE 1031,3 3,5 0,0
20.10.2018 20:00:00 12,4 11,9 - 8 4 - - NE 1031,3 5 0,0
20.10.2018 19:00:00 12,8 11,7 - 8 4 - - NE 1031,1 10 0,0
20.10.2018 18:00:00 14,3 12,0 - 4 2 - - E 1030,9 10 0,0
20.10.2018 17:00:00 15,5 12,9 - 9 5 - - SSE 1031,0 10 0,0
20.10.2018 16:00:00 15,7 13,0 - 11 6 - - SSE 1031,2 10 0,0
20.10.2018 15:00:00 15,9 13,1 - 15 8 - - SSE 1031,7 35 0,0
20.10.2018 14:00:00 15,8 12,9 - 15 8 - - SSE 1031,9 10 0,0
20.10.2018 13:00:00 15,8 13,1 - 15 8 - - SE 1032,3 10 0,0
20.10.2018 12:00:00 15,0 12,6 - 11 6 - - ESE 1032,9 10 0,0
20.10.2018 11:00:00 15,0 12,3 - 11 6 - - ESE 1032,5 10 -
20.10.2018 10:00:00 14,1 13,2 14,0 11 6 - - E 1032,2 10 0,0
20.10.2018 09:00:00 12,6 12,4 - 9 5 - - E 1031,6 10 0,2
20.10.2018 08:00:00 11,6 11,3 - 8 4 - - ENE 1031,0 10 0,0
20.10.2018 07:00:00 12,4 11,9 - 8 4 - - E 1030,5 3,8 0,0
20.10.2018 06:00:00 11,9 11,1 - 5 3 - - NNE 1030,4 30 0,0
20.10.2018 05:00:00 11,8 11,5 - 4 2 - - NNW 1029,8 40 0,0
20.10.2018 04:00:00 12,3 12,1 - 0 0 - - N 1029,7 20 0,0
20.10.2018 03:00:00 12,3 12,0 - 4 2 - - WSW 1029,8 1,3 0,0
20.10.2018 02:00:00 12,2 11,8 - 8 4 - - S 1029,6 10 0,0
20.10.2018 01:00:00 12,6 12,1 - 11 6 - - SSE 1029,3 11 0,0
20.10.2018 00:00:00 13,6 11,5 - 8 4 - - SE 1029,2 40 0,0
19.10.2018 23:00:00 13,8 11,2 - 9 5 - - SE 1029,2 45 0,0
19.10.2018 22:00:00 14,2 11,9 - 4 2 - - ESE 1028,9 45 0,0
19.10.2018 21:00:00 13,9 13,1 - 9 5 - - SE 1028,5 14 0,0
19.10.2018 20:00:00 13,9 13,1 - 8 4 - - E 1028,5 19 0,0
19.10.2018 19:00:00 14,0 13,0 - 4 2 - - NE 1028,2 16 0,0
19.10.2018 18:00:00 14,3 13,0 - 5 3 - - E 1027,4 21 0,0
19.10.2018 17:00:00 14,5 13,3 - 8 4 - - SE 1027,1 10 0,0
19.10.2018 16:00:00 14,7 13,4 - 8 4 - - ESE 1026,8 10 0,0
19.10.2018 15:00:00 14,7 13,4 - 9 5 - - E 1026,6 10 0,0
19.10.2018 14:00:00 14,3 13,0 - 8 4 - - NNE 1026,9 10 0,0
19.10.2018 13:00:00 14,8 13,1 - 8 4 - - E 1027,0 10 0,0
19.10.2018 12:00:00 14,8 13,3 - 0 0 - - N 1026,8 10 0,0
19.10.2018 11:00:00 14,7 13,5 - 5 3 - - E 1026,6 10 0,0
19.10.2018 10:00:00 14,1 13,0 14,2 5 3 - - E 1025,8 10 0,0
19.10.2018 09:00:00 13,6 12,3 - 8 4 - - E 1025,6 10 0,0
19.10.2018 08:00:00 13,5 12,0 - 9 5 - - E 1025,4 10 0,0
19.10.2018 07:00:00 13,5 12,4 - 9 5 - - E 1025,1 13 0,0
19.10.2018 06:00:00 13,4 12,3 - 8 4 - - ENE 1025,0 12 0,0
19.10.2018 05:00:00 13,4 12,3 - 9 5 - - E 1024,9 12 0,0
19.10.2018 04:00:00 13,6 12,0 - 5 3 - - ENE 1025,4 24 0,0
19.10.2018 03:00:00 13,4 12,4 - 13 7 - - E 1025,3 16 0,0
19.10.2018 02:00:00 13,0 11,9 - 9 5 - - ENE 1025,1 17 0,0
19.10.2018 01:00:00 12,9 12,0 - 8 4 - - NE 1025,9 16 0,0
19.10.2018 00:00:00 12,6 11,8 - 8 4 - - NE 1026,3 17 0,0
18.10.2018 23:00:00 12,0 11,2 - 5 3 - - N 1026,3 12 0,0
18.10.2018 22:00:00 12,4 11,7 - 13 7 - - E 1025,5 11 0,0
18.10.2018 21:00:00 12,4 11,3 - 11 6 - - ENE 1025,8 11 0,0
18.10.2018 20:00:00 12,8 11,4 - 13 7 - - NE 1025,5 14 0,0
18.10.2018 19:00:00 12,9 11,5 - 16 9 - - NE 1025,3 16 0,0
18.10.2018 18:00:00 13,5 11,7 - 16 9 - - NE 1025,0 10 0,0
18.10.2018 17:00:00 14,0 11,8 - 18 10 - - NE 1025,1 10 0,0
18.10.2018 16:00:00 14,3 11,8 - 15 8 - - NE 1025,5 10 0,0
18.10.2018 15:00:00 14,5 11,5 - 15 8 - - ENE 1025,8 10 0,0
18.10.2018 14:00:00 14,9 11,4 - 18 10 - - ENE 1026,1 10 0,0
18.10.2018 13:00:00 14,3 11,9 - 21 11 - - ENE 1026,5 18 0,0
18.10.2018 12:00:00 15,0 12,0 - 21 11 - - NE 1026,6 23 0,0
18.10.2018 11:00:00 14,4 11,8 - 24 13 - - NE 1026,6 19 0,0
18.10.2018 10:00:00 13,8 12,0 14,0 24 13 - - NE 1026,5 10 0,0
18.10.2018 09:00:00 13,2 11,6 - 21 11 - - NE 1026,3 10 0,0
18.10.2018 08:00:00 13,3 11,4 - 22 12 - - NE 1025,7 10 0,0
18.10.2018 07:00:00 13,2 11,6 - 22 12 - - NE 1025,5 8 0,0
18.10.2018 06:00:00 13,0 11,6 - 28 15 - - NNE 1025,0 16 0,0
18.10.2018 05:00:00 12,8 10,8 - 29 16 - - NNE 1024,9 20 0,0
18.10.2018 04:00:00 12,7 10,1 - 31 17 46 25 NNE 1025,1 27 0,0
18.10.2018 03:00:00 12,6 9,8 - 31 17 48 26 NNE 1025,2 30 0,0
18.10.2018 02:00:00 12,6 9,7 - 35 19 48 26 NNE 1025,4 21 0,0
18.10.2018 01:00:00 12,8 9,4 - 31 17 46 25 NNE 1025,3 25 0,0
18.10.2018 00:00:00 12,7 9,7 - 31 17 - - NNE 1025,2 29 0,0
17.10.2018 23:00:00 12,6 10,0 - 35 19 55 30 NNE 1024,6 24 0,0
17.10.2018 22:00:00 12,8 10,2 - 31 17 48 26 NNE 1024,4 27 0,0
17.10.2018 21:00:00 13,0 10,9 - 31 17 - - NNE 1023,8 23 0,0
17.10.2018 20:00:00 12,7 10,5 - 29 16 48 26 NNE 1023,2 28 0,0
17.10.2018 19:00:00 13,1 11,0 - 34 18 46 25 NNE 1022,6 18 0,0
17.10.2018 18:00:00 13,4 11,0 - 26 14 - - NNE 1021,6 10 0,0
17.10.2018 17:00:00 13,7 11,7 - 26 14 - - NNE 1021,1 10 0,0
17.10.2018 16:00:00 14,0 11,8 - 22 12 - - N 1020,9 10 0,0
17.10.2018 15:00:00 14,1 12,2 - 21 11 - - N 1020,6 11 0,0
17.10.2018 14:00:00 14,2 12,1 - 18 10 - - N 1020,0 12 0,0
17.10.2018 13:00:00 14,2 12,2 - 21 11 - - NNE 1019,9 10 0,0
17.10.2018 12:00:00 14,1 12,6 - 16 9 - - N 1019,7 12 0,0
17.10.2018 11:00:00 13,9 13,0 - 11 6 - - N 1019,3 7 0,0
17.10.2018 10:00:00 13,4 12,9 14,2 8 4 - - NNW 1019,1 6 0,0
17.10.2018 09:00:00 12,8 12,6 - 11 6 - - NNW 1018,5 7 0,0
17.10.2018 08:00:00 12,5 12,3 - 11 6 - - NNW 1018,0 8 0,0
17.10.2018 07:00:00 12,4 12,2 - 9 5 - - NW 1017,6 5 0,0
17.10.2018 06:00:00 12,2 11,9 - 8 4 - - NW 1017,1 4,7 0,0
17.10.2018 05:00:00 12,4 12,0 - 8 4 - - NW 1016,8 6 0,0
17.10.2018 04:00:00 13,0 12,5 - 4 2 - - NW 1016,8 6 0,0
17.10.2018 03:00:00 13,4 12,8 - 4 2 - - NNW 1016,8 8 0,0
17.10.2018 02:00:00 13,1 11,8 - 5 3 - - WSW 1017,1 21 0,0
17.10.2018 01:00:00 12,9 11,4 - 2 1 46 25 E 1017,0 35 0,0
17.10.2018 00:00:00 13,2 12,7 - 4 2 - - S 1016,9 8 0,0
16.10.2018 23:00:00 12,9 12,5 - 4 2 - - WSW 1016,7 23 0,2
16.10.2018 22:00:00 12,7 12,6 - 16 9 - - WNW 1016,6 3,6 0,0
16.10.2018 21:00:00 13,9 13,8 - 28 15 - - SSW 1015,9 2,6 0,2
16.10.2018 20:00:00 13,8 13,6 - 26 14 - - SSW 1015,9 3,2 0,2
16.10.2018 19:00:00 13,9 13,3 - 28 15 - - SSW 1015,8 3,2 0,0
16.10.2018 18:00:00 14,4 12,9 - 24 13 - - SSW 1015,5 6 0,0
16.10.2018 17:00:00 14,4 12,6 - 22 12 - - SSW 1015,5 10 0,0
16.10.2018 16:00:00 14,6 12,1 - 22 12 - - SSW 1015,6 10 0,0
16.10.2018 15:00:00 15,4 11,6 - 28 15 - - SSW 1015,6 10 0,0
16.10.2018 14:00:00 15,8 11,7 - 26 14 - - SSW 1015,6 10 0,0
16.10.2018 13:00:00 15,1 10,6 - 24 13 - - SSW 1015,8 10 0,0
16.10.2018 12:00:00 14,9 10,1 - 26 14 - - SW 1015,8 30 0,0
16.10.2018 11:00:00 14,2 9,9 - 18 10 - - SW 1015,6 40 0,0
16.10.2018 10:00:00 13,7 10,5 14,0 15 8 - - SW 1015,5 10 0,0
16.10.2018 09:00:00 13,2 9,0 - 18 10 - - SSW 1015,1 10 0,0
16.10.2018 08:00:00 13,0 10,2 - 13 7 - - SW 1014,6 10 0,0
16.10.2018 07:00:00 13,0 10,3 - 11 6 - - WSW 1014,3 50 0,0
16.10.2018 06:00:00 12,9 10,5 - 11 6 - - WSW 1013,7 50 0,0
16.10.2018 05:00:00 12,9 10,9 - 11 6 - - WSW 1013,5 50 0,0
16.10.2018 04:00:00 12,8 11,2 - 8 4 - - W 1013,6 40 0,0
16.10.2018 03:00:00 13,1 10,9 - 11 6 - - SW 1014,0 35 0,0
16.10.2018 02:00:00 13,0 10,7 - 11 6 - - SW 1013,8 50 0,0
16.10.2018 01:00:00 12,9 10,6 - 8 4 - - S 1013,5 50 0,0
16.10.2018 00:00:00 13,0 10,5 - 8 4 - - SW 1013,7 50 0,0
15.10.2018 23:00:00 13,1 10,6 - 5 3 - - ESE 1013,6 45 0,0
15.10.2018 22:00:00 13,0 11,0 - 2 1 - - NNE 1013,7 45 0,0
15.10.2018 21:00:00 13,2 11,1 - 8 4 - - NE 1013,3 50 0,0
15.10.2018 20:00:00 13,1 11,2 - 13 7 - - NNE 1012,7 45 0,0
15.10.2018 19:00:00 12,9 11,0 - 16 9 - - NNE 1012,5 50 0,0
15.10.2018 18:00:00 12,9 10,6 - 18 10 - - NNE 1012,4 45 0,0
15.10.2018 17:00:00 12,9 10,0 - 21 11 - - NNE 1012,1 10 0,0
15.10.2018 16:00:00 13,1 10,3 - 24 13 - - NNE 1011,9 10 0,0
15.10.2018 15:00:00 12,9 9,6 - 22 12 - - NNE 1011,8 50 0,0

tt = Température de l'air
td = dewpoint
tt -20cm = Température de l'air -20cm
ff = Vitesse du vent
fx = gusts
dd = Direction du vent
ppp = reduced air pressure
vv = visibility
rr = Quantités de précipitations

stations d'obs. à proximité